Time,TemperatureF,DewpointF,PressureIn,WindDirection,WindDirectionDegrees,WindSpeedMPH,WindSpeedGustMPH,Humidity,HourlyPrecipIn,Conditions,Clouds,dailyrainin,SolarRadiationWatts/m^2,SoftwareType,DateUTC
2013-07-28 00:12:00,57.0,47.0,-100.00,North,5,8.0,14.0,68,0.00,,,0.00,1.000000,,2013-07-28 05:12:00,
2013-07-28 00:22:00,57.0,47.0,-100.00,North,5,8.0,14.0,68,0.00,,,0.00,1.000000,,2013-07-28 05:22:00,
2013-07-28 00:32:00,57.0,47.0,-100.00,North,5,8.0,14.0,68,0.00,,,0.00,1.000000,,2013-07-28 05:32:00,
2013-07-28 00:43:00,57.0,47.0,-100.00,North,5,8.0,14.0,68,0.00,,,0.00,1.000000,,2013-07-28 05:43:00,
2013-07-28 01:12:00,53.0,45.0,-100.00,NNW,331,5.0,14.0,73,0.00,,,0.00,1.000000,,2013-07-28 06:12:00,
2013-07-28 01:22:00,53.0,45.0,-100.00,NNW,331,5.0,14.0,73,0.00,,,0.00,1.000000,,2013-07-28 06:22:00,
2013-07-28 01:32:00,53.0,45.0,-100.00,NNW,331,5.0,14.0,73,0.00,,,0.00,1.000000,,2013-07-28 06:32:00,
2013-07-28 01:43:00,53.0,45.0,-100.00,NNW,331,5.0,14.0,73,0.00,,,0.00,1.000000,,2013-07-28 06:43:00,
2013-07-28 02:12:00,52.0,44.0,-100.00,NW,314,5.0,12.0,75,0.00,,,0.00,1.000000,,2013-07-28 07:12:00,
2013-07-28 02:22:00,52.0,44.0,-100.00,NW,314,5.0,12.0,75,0.00,,,0.00,1.000000,,2013-07-28 07:22:00,
2013-07-28 02:32:00,52.0,44.0,-100.00,NW,314,5.0,12.0,75,0.00,,,0.00,1.000000,,2013-07-28 07:32:00,
2013-07-28 02:43:00,52.0,44.0,-100.00,NW,314,5.0,12.0,75,0.00,,,0.00,1.000000,,2013-07-28 07:43:00,
2013-07-28 03:12:00,49.0,45.0,-100.00,WNW,292,6.0,9.0,85,0.00,,,0.00,1.000000,,2013-07-28 08:12:00,
2013-07-28 03:22:00,49.0,45.0,-100.00,WNW,292,6.0,9.0,85,0.00,,,0.00,1.000000,,2013-07-28 08:22:00,
2013-07-28 03:33:00,49.0,45.0,-100.00,WNW,292,6.0,9.0,85,0.00,,,0.00,1.000000,,2013-07-28 08:33:00,
2013-07-28 03:42:00,49.0,45.0,-100.00,WNW,292,6.0,9.0,85,0.00,,,0.00,1.000000,,2013-07-28 08:42:00,
2013-07-28 04:12:00,49.0,46.0,-100.00,WNW,284,6.0,7.0,90,0.00,,,0.00,1.000000,,2013-07-28 09:12:00,
2013-07-28 04:22:00,49.0,46.0,-100.00,WNW,284,6.0,7.0,90,0.00,,,0.00,1.000000,,2013-07-28 09:22:00,
2013-07-28 04:32:00,49.0,46.0,-100.00,WNW,284,6.0,7.0,90,0.00,,,0.00,1.000000,,2013-07-28 09:32:00,
2013-07-28 04:43:00,49.0,46.0,-100.00,WNW,284,6.0,7.0,90,0.00,,,0.00,1.000000,,2013-07-28 09:43:00,
2013-07-28 05:12:00,48.0,45.0,-100.00,WNW,293,6.0,10.0,89,0.00,,,0.00,1.000000,,2013-07-28 10:12:00,
2013-07-28 05:22:00,48.0,45.0,-100.00,WNW,293,6.0,10.0,89,0.00,,,0.00,1.000000,,2013-07-28 10:22:00,
2013-07-28 05:33:00,48.0,45.0,-100.00,WNW,293,6.0,10.0,89,0.00,,,0.00,1.000000,,2013-07-28 10:33:00,
2013-07-28 05:42:00,48.0,45.0,-100.00,WNW,293,6.0,10.0,89,0.00,,,0.00,1.000000,,2013-07-28 10:42:00,
2013-07-28 06:12:00,47.0,46.0,-100.00,WNW,282,7.0,9.0,95,0.00,,,0.00,1.000000,,2013-07-28 11:12:00,
2013-07-28 06:22:00,47.0,46.0,-100.00,WNW,282,7.0,9.0,95,0.00,,,0.00,1.000000,,2013-07-28 11:22:00,
2013-07-28 06:33:00,47.0,46.0,-100.00,WNW,282,7.0,9.0,95,0.00,,,0.00,1.000000,,2013-07-28 11:33:00,
2013-07-28 06:43:00,47.0,46.0,-100.00,WNW,282,7.0,9.0,95,0.00,,,0.00,1.000000,,2013-07-28 11:43:00,
2013-07-28 07:12:00,48.0,47.0,-100.00,WNW,285,2.0,8.0,96,0.00,,,-99.99,27.000000,,2013-07-28 12:12:00,
2013-07-28 07:22:00,48.0,47.0,-100.00,WNW,285,2.0,8.0,96,0.00,,,-99.99,27.000000,,2013-07-28 12:22:00,
2013-07-28 07:33:00,48.0,47.0,-100.00,WNW,285,2.0,8.0,96,0.00,,,-99.99,27.000000,,2013-07-28 12:33:00,
2013-07-28 07:43:00,48.0,47.0,-100.00,WNW,285,2.0,8.0,96,0.00,,,-99.99,27.000000,,2013-07-28 12:43:00,
2013-07-28 08:12:00,53.0,49.0,-100.00,WNW,300,6.0,10.0,85,0.00,,,0.00,179.000000,,2013-07-28 13:12:00,
2013-07-28 08:22:00,53.0,49.0,-100.00,WNW,300,6.0,10.0,85,0.00,,,0.00,179.000000,,2013-07-28 13:22:00,
2013-07-28 08:32:00,53.0,49.0,-100.00,WNW,300,6.0,10.0,85,0.00,,,0.00,179.000000,,2013-07-28 13:32:00,
2013-07-28 08:43:00,53.0,49.0,-100.00,WNW,300,6.0,10.0,85,0.00,,,0.00,179.000000,,2013-07-28 13:43:00,
2013-07-28 09:12:00,54.0,49.0,-100.00,NNW,331,6.0,10.0,84,0.00,,,0.00,152.000000,,2013-07-28 14:12:00,
2013-07-28 09:23:00,54.0,49.0,-100.00,NNW,331,6.0,10.0,84,0.00,,,0.00,152.000000,,2013-07-28 14:23:00,
2013-07-28 09:33:00,54.0,49.0,-100.00,NNW,331,6.0,10.0,84,0.00,,,0.00,152.000000,,2013-07-28 14:33:00,
2013-07-28 09:43:00,54.0,49.0,-100.00,NNW,331,6.0,10.0,84,0.00,,,0.00,152.000000,,2013-07-28 14:43:00,
2013-07-28 10:13:00,57.0,48.0,-100.00,NW,326,7.0,14.0,73,0.00,,,0.00,337.000000,,2013-07-28 15:13:00,
2013-07-28 10:22:00,57.0,48.0,-100.00,NW,326,7.0,14.0,73,0.00,,,0.00,337.000000,,2013-07-28 15:22:00,
2013-07-28 10:32:00,57.0,48.0,-100.00,NW,326,7.0,14.0,73,0.00,,,0.00,337.000000,,2013-07-28 15:32:00,
2013-07-28 10:43:00,57.0,48.0,-100.00,NW,326,7.0,14.0,73,0.00,,,0.00,337.000000,,2013-07-28 15:43:00,
2013-07-28 11:12:00,61.0,50.0,-100.00,NNW,340,7.0,14.0,66,0.00,,,0.00,723.000000,,2013-07-28 16:12:00,
2013-07-28 11:22:00,61.0,50.0,-100.00,NNW,340,7.0,14.0,66,0.00,,,0.00,723.000000,,2013-07-28 16:22:00,
2013-07-28 11:33:00,61.0,50.0,-100.00,NNW,340,7.0,14.0,66,0.00,,,0.00,723.000000,,2013-07-28 16:33:00,
2013-07-28 11:43:00,61.0,50.0,-100.00,NNW,340,7.0,14.0,66,0.00,,,0.00,723.000000,,2013-07-28 16:43:00,
2013-07-28 12:13:00,64.0,50.0,-100.00,NNW,334,8.0,12.0,61,0.00,,,0.00,810.000000,,2013-07-28 17:13:00,
2013-07-28 12:23:00,64.0,50.0,-100.00,NNW,334,8.0,12.0,61,0.00,,,0.00,810.000000,,2013-07-28 17:23:00,
2013-07-28 12:32:00,64.0,50.0,-100.00,NNW,334,8.0,12.0,61,0.00,,,0.00,810.000000,,2013-07-28 17:32:00,
2013-07-28 12:43:00,64.0,50.0,-100.00,NNW,334,8.0,12.0,61,0.00,,,0.00,810.000000,,2013-07-28 17:43:00,
2013-07-28 13:12:00,67.0,51.0,-100.00,NW,318,7.0,14.0,56,0.00,,,0.00,913.000000,,2013-07-28 18:12:00,
2013-07-28 13:22:00,67.0,51.0,-100.00,NW,318,7.0,14.0,56,0.00,,,0.00,913.000000,,2013-07-28 18:22:00,
2013-07-28 13:33:00,67.0,51.0,-100.00,NW,318,7.0,14.0,56,0.00,,,0.00,913.000000,,2013-07-28 18:33:00,
2013-07-28 13:43:00,67.0,51.0,-100.00,NW,318,7.0,14.0,56,0.00,,,0.00,913.000000,,2013-07-28 18:43:00,
2013-07-28 14:12:00,69.0,52.0,-100.00,WNW,284,8.0,16.0,55,0.00,,,0.00,781.000000,,2013-07-28 19:12:00,
2013-07-28 14:22:00,69.0,52.0,-100.00,WNW,284,8.0,16.0,55,0.00,,,0.00,781.000000,,2013-07-28 19:22:00,
2013-07-28 14:33:00,69.0,52.0,-100.00,WNW,284,8.0,16.0,55,0.00,,,0.00,781.000000,,2013-07-28 19:33:00,
2013-07-28 14:43:00,69.0,52.0,-100.00,WNW,284,8.0,16.0,55,0.00,,,0.00,781.000000,,2013-07-28 19:43:00,
2013-07-28 15:12:00,70.0,52.0,-100.00,NW,309,8.0,14.0,52,0.00,,,0.00,785.000000,,2013-07-28 20:12:00,
2013-07-28 15:23:00,70.0,52.0,-100.00,NW,309,8.0,14.0,52,0.00,,,0.00,785.000000,,2013-07-28 20:23:00,
2013-07-28 15:33:00,70.0,52.0,-100.00,NW,309,8.0,14.0,52,0.00,,,0.00,785.000000,,2013-07-28 20:33:00,
2013-07-28 15:43:00,70.0,52.0,-100.00,NW,309,8.0,14.0,52,0.00,,,0.00,785.000000,,2013-07-28 20:43:00,
2013-07-28 16:13:00,71.0,52.0,-100.00,NNW,329,7.0,12.0,52,0.00,,,-99.99,479.000000,,2013-07-28 21:13:00,
2013-07-28 16:22:00,71.0,52.0,-100.00,NNW,329,7.0,12.0,52,0.00,,,-99.99,479.000000,,2013-07-28 21:22:00,
2013-07-28 16:33:00,71.0,52.0,-100.00,NNW,329,7.0,12.0,52,0.00,,,-99.99,479.000000,,2013-07-28 21:33:00,
2013-07-28 16:44:00,71.0,52.0,-100.00,NNW,329,7.0,12.0,52,0.00,,,-99.99,479.000000,,2013-07-28 21:44:00,
2013-07-28 17:12:00,72.0,52.0,-100.00,NNW,340,7.0,11.0,50,0.00,,,0.00,499.000000,,2013-07-28 22:12:00,
2013-07-28 17:22:00,72.0,52.0,-100.00,NNW,340,7.0,11.0,50,0.00,,,0.00,499.000000,,2013-07-28 22:22:00,
2013-07-28 17:32:00,72.0,52.0,-100.00,NNW,340,7.0,11.0,50,0.00,,,0.00,499.000000,,2013-07-28 22:32:00,
2013-07-28 17:43:00,72.0,52.0,-100.00,NNW,340,7.0,11.0,50,0.00,,,0.00,499.000000,,2013-07-28 22:43:00,
2013-07-28 18:12:00,73.0,52.0,-100.00,NW,314,7.0,13.0,47,0.00,,,0.00,528.000000,,2013-07-28 23:12:00,
2013-07-28 18:22:00,73.0,52.0,-100.00,NW,314,7.0,13.0,47,0.00,,,0.00,528.000000,,2013-07-28 23:22:00,
2013-07-28 18:32:00,73.0,52.0,-100.00,NW,314,7.0,13.0,47,0.00,,,0.00,528.000000,,2013-07-28 23:32:00,
2013-07-28 18:43:00,73.0,52.0,-100.00,NW,314,7.0,13.0,47,0.00,,,0.00,528.000000,,2013-07-28 23:43:00,
2013-07-28 19:12:00,73.0,52.0,-100.00,NNW,339,6.0,11.0,47,0.00,,,0.00,379.000000,,2013-07-29 00:12:00,
2013-07-28 19:22:00,73.0,52.0,-100.00,NNW,339,6.0,11.0,47,0.00,,,0.00,379.000000,,2013-07-29 00:22:00,
2013-07-28 19:32:00,73.0,52.0,-100.00,NNW,339,6.0,11.0,47,0.00,,,0.00,379.000000,,2013-07-29 00:32:00,
2013-07-28 19:43:00,73.0,52.0,-100.00,NNW,339,6.0,11.0,47,0.00,,,0.00,379.000000,,2013-07-29 00:43:00,
2013-07-28 20:14:00,70.0,55.0,-100.00,North,352,3.0,9.0,58,0.00,,,0.00,127.000000,,2013-07-29 01:14:00,
2013-07-28 20:28:00,70.0,55.0,-100.00,North,352,3.0,9.0,58,0.00,,,0.00,127.000000,,2013-07-29 01:28:00,
2013-07-28 20:35:00,70.0,55.0,-100.00,North,352,3.0,9.0,58,0.00,,,0.00,127.000000,,2013-07-29 01:35:00,
2013-07-28 21:14:00,65.0,53.0,-100.00,North,357,3.0,6.0,65,0.00,,,0.00,32.000000,,2013-07-29 02:14:00,
2013-07-28 21:36:00,65.0,53.0,-100.00,North,357,3.0,6.0,65,0.00,,,0.00,32.000000,,2013-07-29 02:36:00,
2013-07-28 22:17:00,62.0,52.0,-100.00,North,8,3.0,6.0,71,0.00,,,0.00,1.000000,,2013-07-29 03:17:00,
2013-07-28 22:24:00,62.0,52.0,-100.00,North,8,3.0,6.0,71,0.00,,,0.00,1.000000,,2013-07-29 03:24:00,
2013-07-28 22:36:00,62.0,52.0,-100.00,North,8,3.0,6.0,71,0.00,,,0.00,1.000000,,2013-07-29 03:36:00,
2013-07-28 22:48:00,62.0,52.0,-100.00,North,8,3.0,6.0,71,0.00,,,0.00,1.000000,,2013-07-29 03:48:00,
2013-07-28 23:12:00,58.0,53.0,-100.00,North,357,2.0,4.0,84,0.00,,,0.00,1.000000,,2013-07-29 04:12:00,
2013-07-28 23:22:00,58.0,53.0,-100.00,North,357,2.0,4.0,84,0.00,,,0.00,1.000000,,2013-07-29 04:22:00,
2013-07-28 23:32:00,58.0,53.0,-100.00,North,357,2.0,4.0,84,0.00,,,0.00,1.000000,,2013-07-29 04:32:00,
2013-07-28 23:43:00,58.0,53.0,-100.00,North,357,2.0,4.0,84,0.00,,,0.00,1.000000,,2013-07-29 04:43:00,